Location: Home
(51.5204°N, 2.5456°W)
Time: 12:15:54
(UTC+00:00)

STRAND 1 - Pass Details

Date: 09 December 2019
Orbit: 768 x 781 km, 98.5° (Epoch: 17 January)

Event Time Altitude Azimuth Distance (km) Brightness Sun altitude
Rises 06:13:15 0° 153° (SSE) 3,248 ? -16.0°
Reaches altitude 10° 06:15:34 10° 150° (SSE) 2,323 ? -15.7°
Maximum altitude 06:20:37 64° 70° (ENE) 863 ? -14.9°
Drops below altitude 10° 06:25:42 10° 350° (N) 2,331 ? -14.2°
Sets 06:28:01 0° 348° (NNW) 3,260 ? -13.8°
